Date String (YYYY-MM-DD hh:mm:ss) UTC,Instrument flags,absolute air pressure of the measurement (hPa),sample flow rate (lpm),inlet stack bypass flow (lpm),air temperature of the measurement (°C),ambient temperature measured by the external sensor (°C),aerosol sample conditioner tube jacket temperature (°C),OPC LED temperature (°C),internal box temperature (°C),relative humidity of the measurement (%),span deviation,mass concentration of particles derived from Lorenz-Mie calculation of OPC scattering (μg/m³),mass concentration of particles derived from Lorenz-Mie calculation of OPC scattering (μg/m³),mass concentration of particles derived from Lorenz-Mie calculation of OPC scattering (μg/m³)
DateTimeUTC,F1_M11,P_M11,Q1_M11,Q2_M11,T1_M11,T2_M11,T3_M11,T4_M11,T5_M11,U1_M11,ZSPAN_M11,X2_M11,X0_M11,X1_M11
2023-08-09 06:00:00,SystemResetWarning,0831.4,5.00,000.00,029.5,028.4,000.0,038.1,031.2,24.9,0000.0,0004.25,0009.31,0003.61
2023-08-09 06:01:00,SystemResetWarning,0831.4,4.99,000.00,029.6,028.4,000.0,038.1,031.3,24.7,0000.0,0004.24,0009.12,0003.61
2023-08-09 06:02:00,SystemResetWarning,0831.4,5.00,000.00,029.6,028.5,000.0,038.1,031.3,24.6,0000.0,0004.28,0009.21,0003.62
2023-08-09 06:03:00,SystemResetWarning,0831.4,5.00,000.00,029.6,028.1,000.0,038.1,031.3,24.5,0000.0,0004.28,0010.05,0003.61
2023-08-09 06:04:00,SystemResetWarning,0831.4,5.00,000.00,029.6,026.3,000.0,038.0,031.0,24.5,0000.0,0004.30,0010.10,0003.60
2023-08-09 06:05:00,SystemResetWarning,0831.3,5.01,000.00,029.5,025.3,000.0,037.8,030.8,24.7,0000.0,0004.35,0010.09,0003.60
2023-08-09 06:06:00,SystemResetWarning,0831.3,5.01,000.00,029.4,025.4,000.0,037.9,030.6,25.1,0000.0,0004.33,0010.21,0003.59
2023-08-09 06:07:00,SystemResetWarning,0831.3,4.99,000.00,029.3,025.7,000.0,037.9,030.6,25.2,0000.0,0004.34,0010.85,0003.59
2023-08-09 06:08:00,SystemResetWarning,0831.4,4.99,000.00,029.3,026.1,000.0,037.9,030.7,25.1,0000.0,0004.36,0011.26,0003.59
2023-08-09 06:09:00,SystemResetWarning,0831.4,5.00,000.00,029.3,026.5,000.0,037.9,030.7,25.0,0000.0,0004.35,0011.06,0003.59
2023-08-09 06:10:00,SystemResetWarning,0831.3,5.01,000.00,029.3,026.8,000.0,037.9,030.8,25.1,0000.0,0004.36,0011.22,0003.60
2023-08-09 06:11:00,SystemResetWarning,0831.3,5.00,000.00,029.3,027.1,000.0,037.9,030.8,25.1,0000.0,0004.41,0011.40,0003.62
2023-08-09 06:12:00,SystemResetWarning,0831.4,4.99,000.00,029.3,027.3,000.0,037.9,030.9,25.1,0000.0,0004.43,0011.30,0003.64
2023-08-09 06:13:00,SystemResetWarning,0831.3,5.00,000.00,029.3,027.5,000.0,037.9,030.9,25.1,0000.0,0004.43,0011.59,0003.65
2023-08-09 06:14:00,SystemResetWarning,0831.4,5.00,000.00,029.3,027.7,000.0,037.9,031.0,25.1,0000.0,0004.44,0011.29,0003.68
2023-08-09 06:15:00,SystemResetWarning,0831.3,5.01,000.00,029.3,027.8,000.0,037.9,031.0,25.1,0000.0,0004.43,0011.00,0003.70
2023-08-09 06:16:00,SystemResetWarning,0831.3,5.01,000.00,029.4,027.9,000.0,038.0,031.0,25.0,0000.0,0004.40,0011.01,0003.72
2023-08-09 06:17:00,SystemResetWarning,0831.4,5.00,000.00,029.4,028.0,000.0,038.0,031.1,25.1,0000.0,0004.39,0011.23,0003.73
2023-08-09 06:18:00,SystemResetWarning,0831.4,5.00,000.00,029.4,028.1,000.0,038.0,031.1,25.1,0000.0,0004.43,0011.78,0003.75
2023-08-09 06:19:00,SystemResetWarning,0831.4,5.00,000.00,029.4,028.2,000.0,038.0,031.1,25.0,0000.0,0004.41,0011.07,0003.75
2023-08-09 06:20:00,SystemResetWarning,0831.4,5.00,000.00,029.5,028.2,000.0,038.0,031.2,25.0,0000.0,0004.40,0011.89,0003.76
2023-08-09 06:21:00,SystemResetWarning,0831.4,5.00,000.00,029.5,028.3,000.0,038.0,031.2,24.9,0000.0,0004.43,0011.86,0003.77
2023-08-09 06:22:00,SystemResetWarning,0831.4,5.00,000.00,029.5,028.3,000.0,038.1,031.2,24.9,0000.0,0004.42,0012.44,0003.77
2023-08-09 06:23:00,SystemResetWarning,0831.4,5.00,000.00,029.6,028.4,000.0,038.1,031.2,24.9,0000.0,0004.42,0013.12,0003.76
2023-08-09 06:24:00,SystemResetWarning,0831.4,5.00,000.00,029.6,028.4,000.0,038.1,031.3,24.7,0000.0,0004.42,0013.14,0003.74
2023-08-09 06:25:00,SystemResetWarning,0831.4,4.99,000.00,029.6,028.5,000.0,038.1,031.3,24.6,0000.0,0004.44,0012.59,0003.73
2023-08-09 06:26:00,SystemResetWarning,0831.3,4.99,000.00,029.6,028.5,000.0,038.1,031.3,24.5,0000.0,0004.48,0012.73,0003.73
2023-08-09 06:27:00,SystemResetWarning,0831.3,5.00,000.00,029.7,028.2,000.0,038.1,031.3,24.4,0000.0,0004.47,0012.67,0003.72
2023-08-09 06:28:00,SystemResetWarning,0831.4,5.00,000.00,029.6,026.2,000.0,038.0,031.0,24.5,0000.0,0004.46,0012.22,0003.71
2023-08-09 06:29:00,SystemResetWarning,0831.3,5.00,000.00,029.6,025.2,000.0,037.9,030.8,24.5,0000.0,0004.44,0011.10,0003.70
2023-08-09 06:30:00,SystemResetWarning,0831.3,5.01,000.00,029.4,025.3,000.0,037.9,030.5,24.7,0000.0,0004.46,0011.16,0003.70
2023-08-09 06:31:00,SystemResetWarning,0831.3,5.00,000.00,029.3,025.6,000.0,037.9,030.5,24.8,0000.0,0004.49,0010.94,0003.71
2023-08-09 06:32:00,SystemResetWarning,0831.3,5.00,000.00,029.3,026.0,000.0,037.9,030.6,24.8,0000.0,0004.45,0010.74,0003.71
2023-08-09 06:33:00,SystemResetWarning,0831.3,5.00,000.00,029.3,026.4,000.0,037.9,030.7,24.8,0000.0,0004.44,0010.22,0003.70
2023-08-09 06:34:00,SystemResetWarning,0831.3,5.00,000.00,029.3,026.8,000.0,037.9,030.8,24.9,0000.0,0004.45,0009.54,0003.70
2023-08-09 06:35:00,SystemResetWarning,0831.3,5.00,000.00,029.3,027.1,000.0,037.9,030.8,24.8,0000.0,0004.47,0009.72,0003.71
2023-08-09 06:36:00,SystemResetWarning,0831.3,5.00,000.00,029.3,027.3,000.0,037.9,030.9,24.8,0000.0,0004.45,0009.62,0003.73
2023-08-09 06:37:00,SystemResetWarning,0831.3,4.99,000.00,029.3,027.5,000.0,037.9,031.0,24.8,0000.0,0004.43,0009.74,0003.75
2023-08-09 06:38:00,SystemResetWarning,0831.3,4.99,000.00,029.3,027.7,000.0,038.0,031.0,24.8,0000.0,0004.44,0010.19,0003.75
2023-08-09 06:39:00,SystemResetWarning,0831.3,5.00,000.00,029.4,027.8,000.0,038.0,031.0,24.7,0000.0,0004.45,0010.27,0003.77
2023-08-09 06:40:00,SystemResetWarning,0831.3,5.00,000.00,029.4,028.0,000.0,038.0,031.0,24.7,0000.0,0004.46,0010.43,0003.77
2023-08-09 06:41:00,SystemResetWarning,0831.3,5.01,000.00,029.4,028.1,000.0,038.0,031.1,24.7,0000.0,0004.44,0010.23,0003.78
2023-08-09 06:42:00,SystemResetWarning,0831.3,5.00,000.00,029.4,028.1,000.0,038.0,031.1,24.7,0000.0,0004.49,0010.34,0003.79
2023-08-09 06:43:00,SystemResetWarning,0831.3,5.00,000.00,029.5,028.2,000.0,038.0,031.1,24.6,0000.0,0004.51,0010.84,0003.80
2023-08-09 06:44:00,SystemResetWarning,0831.3,4.99,000.00,029.5,028.3,000.0,038.0,031.1,24.7,0000.0,0004.52,0010.85,0003.80
2023-08-09 06:45:00,SystemResetWarning,0831.3,5.00,000.00,029.5,028.3,000.0,038.0,031.2,24.6,0000.0,0004.52,0010.73,0003.81
2023-08-09 06:46:00,SystemResetWarning,0831.2,5.00,000.00,029.5,028.4,000.0,038.1,031.2,24.6,0000.0,0004.47,0010.55,0003.82
2023-08-09 06:47:00,SystemResetWarning,0831.2,5.00,000.00,029.6,028.4,000.0,038.1,031.2,24.6,0000.0,0004.48,0010.68,0003.82
2023-08-09 06:48:00,SystemResetWarning,0831.2,5.00,000.00,029.6,028.4,000.0,038.1,031.3,24.6,0000.0,0004.48,0010.52,0003.82
2023-08-09 06:49:00,SystemResetWarning,0831.2,5.00,000.00,029.6,028.5,000.0,038.1,031.3,24.5,0000.0,0004.49,0010.12,0003.83
2023-08-09 06:50:00,SystemResetWarning,0831.1,5.00,000.00,029.6,028.5,000.0,038.1,031.3,24.5,0000.0,0004.49,0009.93,0003.83
2023-08-09 06:51:00,SystemResetWarning,0831.1,5.00,000.00,029.7,028.5,000.0,038.2,031.3,24.4,0000.0,0004.51,0009.74,0003.84
2023-08-09 06:52:00,SystemResetWarning,0831.1,5.00,000.00,029.7,028.6,000.0,038.2,031.3,24.4,0000.0,0004.50,0009.63,0003.84
2023-08-09 06:53:00,SystemResetWarning,0831.1,5.00,000.00,029.7,028.6,000.0,038.2,031.4,24.4,0000.0,0004.47,0009.09,0003.83
2023-08-09 06:54:00,SystemResetWarning,0831.1,5.00,000.00,029.7,028.6,000.0,038.2,031.4,24.4,0000.0,0004.45,0008.25,0003.82
2023-08-09 06:55:00,SystemResetWarning,0831.1,5.00,000.00,029.7,028.6,000.0,038.2,031.4,24.4,0000.0,0004.45,0008.39,0003.82
2023-08-09 06:56:00,SystemResetWarning,0831.1,5.00,000.00,029.8,028.6,000.0,038.3,031.4,24.4,0000.0,0004.45,0008.49,0003.82
2023-08-09 06:57:00,SystemResetWarning,0831.0,5.00,000.00,029.8,028.6,000.0,038.3,031.4,24.5,0000.0,0004.49,0008.40,0003.83
2023-08-09 06:58:00,SystemResetWarning,0831.0,4.99,000.00,029.8,028.6,000.0,038.3,031.4,24.6,0000.0,0004.47,0007.98,0003.83
2023-08-09 06:59:00,SystemResetWarning,0830.9,4.98,000.00,029.8,027.2,000.0,038.2,031.2,24.6,0000.0,0004.46,0008.04,0003.82
